Regional Weather Roundup
Issued by NWS

Home | Current Version | Previous Version | Graphics & Text | Print | Product List | Glossary On
Versions: 1 2 3 4 5 6 7 8 9 10 11 12 13 14 15 16 17 18 19 20 21 22 23 24 25 26 27 28 29 30 31 32 33 34 35 36 37 38 39 40 41 42 43 44 45 46 47 48 49 50
000
ASUS43 KLMK 230902
RWRKY
KENTUCKY REGIONAL WEATHER ROUNDUP
NATIONAL WEATHER SERVICE LOUISVILLE KY
500 AM EDT FRI JUN 23 2017

NOTE "FAIR" INDICATES FEW OR NO CLOUDS BELOW 12,000 FEET
WITH NO SIGNIFICANT WEATHER AND/OR OBSTRUCTIONS TO VISIBILITY.

KYZ001>023-026-027-061>063-070>075-231000-
WESTERN AND SOUTH CENTRAL KENTUCKY

CITY           SKY/WX    TMP DP  RH WIND       PRES   REMARKS
PADUCAH        CLOUDY    78  72  81 S8G17     29.73S
HENDERSON      CLOUDY    76  73  91 S8        29.76F
OWENSBORO      CLOUDY    76  73  91 S7        29.78S
HOPKINSVILLE   CLOUDY    76  72  87 S9        29.79F
BOWLING GREEN  CLOUDY    76  74  93 S9        29.82S
GLASGOW        NOT AVBL
$$

KYZ024-025-028>034-038-045-046-053-231000-
NORTH CENTRAL KENTUCKY

CITY           SKY/WX    TMP DP  RH WIND       PRES   REMARKS
LOUISVILLE/SDF CLOUDY    77  73  87 S10       29.78F
LOUISVILLE/LOU CLOUDY    76  75  97 S5        29.80F
FORT KNOX      CLOUDY    75  73  94 S8        29.79F
$$

KYZ035>037-039>044-047>052-055>060-089>105-231000-
NORTHEAST KENTUCKY

CITY           SKY/WX    TMP DP  RH WIND       PRES   REMARKS
LEXINGTON      CLOUDY    74  70  87 S12       29.84S
COVINGTON      CLOUDY    73  72  96 S12       29.79S
FRANKFORT      CLOUDY    75  70  84 SW10      29.81S
$$

KYZ054-064>069-076>088-106>120-231000-
SOUTHEAST KENTUCKY

CITY           SKY/WX    TMP DP  RH WIND       PRES   REMARKS
JACKSON        CLOUDY    72  68  87 VRB3      29.89F
LONDON         CLOUDY    73  69  87 S8        29.90F
SOMERSET       CLOUDY    72  72 100 S3        29.89S
MIDDLESBORO    HVY RAIN  73  71  94 S9G18     29.95S
MONTICELLO     CLOUDY    76  71  85 VRB3      29.89F
$$





USA.gov is the U.S. government's official web portal to all federal, state and local government web resources and services.